| time (UTC) | temp F | wind direction | speed MPH | gust MPH | rain 1hr in | rain 24hr in | rain mn in | humidity % | barometer mb |
| 20260505124552 | 43 | 53 | 2.0 | 5.0 | 0.01 | 0.11 | 0.06 | 95 | 1014.2 |
| 20260505124047 | 43 | 0 | 1.0 | 6.0 | 0.01 | 0.11 | 0.06 | 95 | 1014.1 |
| 20260505123545 | 42 | 121 | 1.0 | 6.0 | 0.01 | 0.11 | 0.06 | 95 | 1014.0 |
| 20260505123100 | 42 | 90 | 0.0 | 4.0 | 0.01 | 0.11 | 0.06 | 95 | 1013.8 |
| 20260505122545 | 42 | 0 | 0.0 | 3.0 | 0.01 | 0.11 | 0.06 | 95 | 1013.7 |
| 20260505122046 | 42 | 147 | 0.0 | 3.0 | 0.01 | 0.11 | 0.06 | 95 | 1013.8 |
| 20260505121557 | 42 | 199 | 0.0 | 3.0 | 0.00 | 0.10 | 0.05 | 95 | 1013.8 |
| 20260505121046 | 43 | 111 | 1.0 | 6.0 | 0.00 | 0.10 | 0.05 | 95 | 1013.8 |
| 20260505120546 | 43 | 0 | 1.0 | 6.0 | 0.01 | 0.10 | 0.05 | 95 | 1013.9 |
| 20260505120051 | 43 | 334 | 1.0 | 5.0 | 0.01 | 0.10 | 0.05 | 95 | 1014.0 |
| 20260505115544 | 43 | 40 | 1.0 | 4.0 | 0.01 | 0.10 | 0.05 | 95 | 1013.9 |
| 20260505115045 | 43 | 0 | 0.0 | 4.0 | 0.01 | 0.10 | 0.05 | 95 | 1013.9 |
| 20260505114554 | 43 | 0 | 0.0 | 2.0 | 0.01 | 0.10 | 0.05 | 95 | 1013.8 |
| 20260505114048 | 43 | 135 | 0.0 | 2.0 | 0.01 | 0.10 | 0.05 | 95 | 1013.9 |
| 20260505113547 | 43 | 328 | 0.0 | 5.0 | 0.01 | 0.10 | 0.05 | 95 | 1013.8 |
| 20260505113108 | 43 | 87 | 0.0 | 5.0 | 0.01 | 0.10 | 0.05 | 95 | 1013.9 |
| 20260505112547 | 42 | 67 | 2.0 | 5.0 | 0.01 | 0.10 | 0.05 | 95 | 1013.9 |
| 20260505112046 | 42 | 103 | 0.0 | 3.0 | 0.01 | 0.10 | 0.05 | 95 | 1014.1 |
| 20260505111552 | 42 | 0 | 0.0 | 2.0 | 0.01 | 0.10 | 0.05 | 95 | 1014.0 |
| 20260505111046 | 42 | 0 | 0.0 | 6.0 | 0.01 | 0.10 | 0.05 | 95 | 1014.0 |
| 20260505110546 | 42 | 0 | 0.0 | 6.0 | 0.00 | 0.09 | 0.04 | 95 | 1013.9 |
| 20260505102044 | 42 | 0 | 0.0 | 3.0 | 0.01 | 0.10 | 0.04 | 95 | 1013.9 |
| 20260505101555 | 42 | 0 | 0.0 | 2.0 | 0.01 | 0.10 | 0.04 | 95 | 1013.9 |
| 20260505101046 | 41 | 34 | 0.0 | 2.0 | 0.01 | 0.10 | 0.04 | 95 | 1013.9 |
| 20260505100548 | 41 | 0 | 0.0 | 3.0 | 0.01 | 0.10 | 0.04 | 95 | 1014.1 |
| 20260505100055 | 41 | 0 | 0.0 | 3.0 | 0.00 | 0.09 | 0.03 | 95 | 1014.1 |
| 20260505095543 | 41 | 32 | 1.0 | 3.0 | 0.00 | 0.10 | 0.03 | 95 | 1014.2 |
| 20260505095046 | 41 | 67 | 1.0 | 3.0 | 0.00 | 0.10 | 0.03 | 94 | 1014.2 |
| 20260505094557 | 41 | 0 | 0.0 | 4.0 | 0.01 | 0.10 | 0.03 | 94 | 1014.2 |
| 20260505094047 | 41 | 127 | 0.0 | 5.0 | 0.01 | 0.10 | 0.03 | 94 | 1014.2 |
| 20260505093547 | 41 | 124 | 2.0 | 5.0 | 0.01 | 0.10 | 0.03 | 94 | 1014.4 |
| 20260505093054 | 41 | 82 | 0.0 | 7.0 | 0.01 | 0.10 | 0.03 | 94 | 1014.4 |
| 20260505092546 | 41 | 105 | 1.0 | 7.0 | 0.01 | 0.10 | 0.03 | 94 | 1014.4 |
| 20260505092047 | 41 | 147 | 1.0 | 4.0 | 0.01 | 0.10 | 0.03 | 94 | 1014.5 |
| 20260505091608 | 41 | 30 | 0.0 | 4.0 | 0.01 | 0.10 | 0.03 | 94 | 1014.4 |
| 20260505091045 | 41 | 106 | 0.0 | 3.0 | 0.01 | 0.10 | 0.03 | 95 | 1014.5 |
| 20260505090546 | 41 | 61 | 0.0 | 3.0 | 0.01 | 0.10 | 0.03 | 94 | 1014.5 |
| 20260505090054 | 41 | 0 | 0.0 | 3.0 | 0.01 | 0.10 | 0.03 | 95 | 1014.5 |
| 20260505085550 | 41 | 0 | 0.0 | 3.0 | 0.01 | 0.10 | 0.03 | 95 | 1014.5 |
| 20260505085046 | 41 | 0 | 0.0 | 3.0 | 0.02 | 0.10 | 0.03 | 95 | 1014.6 |
| 20260505084553 | 41 | 0 | 0.0 | 3.0 | 0.01 | 0.09 | 0.02 | 95 | 1014.7 |
| 20260505084045 | 41 | 0 | 0.0 | 2.0 | 0.01 | 0.09 | 0.02 | 95 | 1014.6 |
| 20260505083545 | 41 | 0 | 0.0 | 3.0 | 0.01 | 0.09 | 0.02 | 94 | 1014.6 |
| 20260505083049 | 41 | 0 | 0.0 | 3.0 | 0.01 | 0.09 | 0.02 | 94 | 1014.9 |
| 20260505082549 | 41 | 311 | 1.0 | 4.0 | 0.01 | 0.09 | 0.02 | 94 | 1015.0 |
| 20260505082047 | 41 | 280 | 0.0 | 4.0 | 0.01 | 0.09 | 0.02 | 94 | 1015.1 |
| 20260505081600 | 41 | 0 | 1.0 | 6.0 | 0.01 | 0.09 | 0.02 | 94 | 1015.1 |
| 20260505081047 | 41 | 0 | 1.0 | 6.0 | 0.01 | 0.09 | 0.02 | 94 | 1015.2 |
| 20260505080546 | 41 | 240 | 0.0 | 4.0 | 0.01 | 0.09 | 0.02 | 94 | 1015.3 |
| 20260505080108 | 41 | 0 | 0.0 | 4.0 | 0.02 | 0.09 | 0.02 | 94 | 1015.3 |
| 20260505075549 | 41 | 98 | 1.0 | 4.0 | 0.02 | 0.09 | 0.02 | 94 | 1015.4 |
| 20260505075046 | 41 | 0 | 0.0 | 3.0 | 0.01 | 0.08 | 0.01 | 94 | 1015.3 |
| 20260505074602 | 41 | 85 | 0.0 | 4.0 | 0.01 | 0.08 | 0.01 | 94 | 1015.3 |
| 20260505074044 | 41 | 0 | 2.0 | 4.0 | 0.01 | 0.08 | 0.01 | 94 | 1015.3 |
| 20260505073545 | 41 | 121 | 1.0 | 4.0 | 0.01 | 0.08 | 0.01 | 94 | 1015.3 |
| 20260505073051 | 41 | 0 | 1.0 | 4.0 | 0.01 | 0.08 | 0.01 | 94 | 1015.3 |
| 20260505072548 | 42 | 0 | 0.0 | 6.0 | 0.01 | 0.08 | 0.01 | 94 | 1015.3 |
| 20260505072048 | 42 | 123 | 1.0 | 6.0 | 0.01 | 0.08 | 0.01 | 94 | 1015.3 |
| 20260505071557 | 42 | 297 | 1.0 | 6.0 | 0.02 | 0.08 | 0.01 | 94 | 1015.4 |
| 20260505071045 | 42 | 101 | 1.0 | 6.0 | 0.02 | 0.08 | 0.01 | 94 | 1015.4 |
| 20260505070547 | 42 | 51 | 2.0 | 5.0 | 0.02 | 0.08 | 0.01 | 94 | 1015.4 |
| 20260505070056 | 42 | 144 | 1.0 | 8.0 | 0.01 | 0.07 | 0.00 | 94 | 1015.4 |
| 20260505065546 | 42 | 94 | 1.0 | 8.0 | 0.01 | 0.07 | 0.07 | 94 | 1015.4 |
| 20260505065044 | 42 | 136 | 1.0 | 8.0 | 0.01 | 0.07 | 0.07 | 94 | 1015.6 |
| 20260505064551 | 42 | 172 | 1.0 | 5.0 | 0.01 | 0.07 | 0.07 | 94 | 1015.6 |
| 20260505064048 | 42 | 67 | 0.0 | 5.0 | 0.01 | 0.07 | 0.07 | 94 | 1015.6 |
| 20260505063732 | 42 | 301 | 1.0 | 5.0 | 0.01 | 0.07 | 0.07 | 94 | 1015.6 |
| 20260505063119 | 42 | 71 | 1.0 | 5.0 | 0.01 | 0.07 | 0.07 | 94 | 1015.6 |
| 20260505062546 | 42 | 50 | 1.0 | 4.0 | 0.01 | 0.07 | 0.07 | 94 | 1015.6 |
| 20260505062045 | 42 | 170 | 1.0 | 7.0 | 0.01 | 0.07 | 0.07 | 94 | 1015.6 |
| 20260505061623 | 42 | 44 | 1.0 | 7.0 | 0.00 | 0.06 | 0.06 | 93 | 1015.6 |
| 20260505061045 | 42 | 60 | 0.0 | 5.0 | 0.01 | 0.06 | 0.06 | 94 | 1015.8 |
| 20260505060548 | 42 | 182 | 1.0 | 5.0 | 0.01 | 0.06 | 0.06 | 94 | 1015.8 |
| 20260505055546 | 42 | 163 | 1.0 | 7.0 | 0.01 | 0.06 | 0.06 | 94 | 1015.8 |
| 20260505055046 | 42 | 56 | 1.0 | 8.0 | 0.01 | 0.06 | 0.06 | 93 | 1015.8 |
| 20260505054606 | 42 | 238 | 1.0 | 8.0 | 0.01 | 0.06 | 0.06 | 94 | 1016.0 |
| 20260505054048 | 42 | 153 | 2.0 | 8.0 | 0.01 | 0.06 | 0.06 | 93 | 1016.0 |
| 20260505053545 | 42 | 137 | 1.0 | 4.0 | 0.01 | 0.06 | 0.06 | 93 | 1016.1 |
| 20260505053051 | 42 | 0 | 1.0 | 5.0 | 0.01 | 0.06 | 0.06 | 93 | 1015.9 |
| 20260505052548 | 42 | 139 | 1.0 | 5.0 | 0.01 | 0.06 | 0.06 | 93 | 1016.0 |
| 20260505052048 | 42 | 116 | 1.0 | 7.0 | 0.01 | 0.06 | 0.06 | 93 | 1016.0 |
| 20260505051610 | 42 | 0 | 1.0 | 7.0 | 0.01 | 0.06 | 0.06 | 93 | 1016.1 |
| 20260505051048 | 42 | 46 | 2.0 | 18.0 | 0.01 | 0.05 | 0.05 | 93 | 1016.2 |
| 20260505050547 | 42 | 138 | 1.0 | 18.0 | 0.01 | 0.05 | 0.05 | 93 | 1016.2 |
| 20260505041559 | 42 | 90 | 2.0 | 3.0 | 0.01 | 0.05 | 0.05 | 92 | 1016.2 |
| 20260505041045 | 43 | 321 | 1.0 | 8.0 | 0.00 | 0.04 | 0.04 | 93 | 1016.2 |
| 20260505040545 | 43 | 95 | 1.0 | 8.0 | 0.00 | 0.04 | 0.04 | 93 | 1016.2 |
| 20260505040100 | 43 | 296 | 1.0 | 6.0 | 0.00 | 0.04 | 0.04 | 92 | 1016.1 |
| 20260505035546 | 43 | 90 | 1.0 | 4.0 | 0.00 | 0.04 | 0.04 | 92 | 1016.0 |
| 20260505035044 | 43 | 286 | 1.0 | 4.0 | 0.00 | 0.04 | 0.04 | 91 | 1015.9 |
| 20260505034553 | 43 | 0 | 1.0 | 5.0 | 0.00 | 0.04 | 0.04 | 91 | 1016.1 |
| 20260505034045 | 44 | 126 | 1.0 | 5.0 | 0.00 | 0.04 | 0.04 | 92 | 1016.1 |
| 20260505033545 | 44 | 0 | 1.0 | 5.0 | 0.00 | 0.04 | 0.04 | 92 | 1015.9 |
| 20260505033058 | 44 | 211 | 1.0 | 7.0 | 0.00 | 0.04 | 0.04 | 92 | 1015.9 |
| 20260505032545 | 44 | 44 | 1.0 | 7.0 | 0.00 | 0.04 | 0.04 | 92 | 1015.8 |
| 20260505032046 | 44 | 0 | 2.0 | 11.0 | 0.00 | 0.04 | 0.04 | 92 | 1015.8 |
| 20260505031558 | 44 | 117 | 3.0 | 11.0 | 0.00 | 0.04 | 0.04 | 92 | 1016.0 |
| 20260505031047 | 44 | 32 | 1.0 | 7.0 | 0.00 | 0.04 | 0.04 | 92 | 1015.7 |
| 20260505030545 | 44 | 152 | 3.0 | 7.0 | 0.00 | 0.04 | 0.04 | 91 | 1015.8 |
| 20260505030057 | 44 | 140 | 2.0 | 5.0 | 0.00 | 0.04 | 0.04 | 91 | 1015.6 |
| 20260505025545 | 44 | 122 | 1.0 | 4.0 | 0.00 | 0.04 | 0.04 | 91 | 1015.5 |
| 20260505025045 | 44 | 98 | 1.0 | 11.0 | 0.00 | 0.04 | 0.04 | 91 | 1015.6 |
| 20260505024556 | 44 | 0 | 2.0 | 11.0 | 0.00 | 0.04 | 0.04 | 91 | 1015.4 |
| 20260505024046 | 44 | 115 | 1.0 | 5.0 | 0.00 | 0.04 | 0.04 | 90 | 1015.4 |
| 20260505023544 | 44 | 163 | 1.0 | 11.0 | 0.00 | 0.04 | 0.04 | 90 | 1015.4 |
| 20260505023051 | 44 | 46 | 2.0 | 11.0 | 0.00 | 0.04 | 0.04 | 89 | 1015.4 |
| 20260505022545 | 44 | 105 | 1.0 | 7.0 | 0.00 | 0.04 | 0.04 | 89 | 1015.5 |
| 20260505022045 | 45 | 130 | 1.0 | 5.0 | 0.00 | 0.04 | 0.04 | 89 | 1015.6 |
| 20260505021557 | 45 | 85 | 1.0 | 6.0 | 0.00 | 0.04 | 0.04 | 88 | 1015.4 |
| 20260505021044 | 45 | 127 | 0.0 | 6.0 | 0.00 | 0.04 | 0.04 | 88 | 1015.4 |
| 20260505020545 | 45 | 76 | 1.0 | 6.0 | 0.00 | 0.04 | 0.04 | 87 | 1015.4 |
| 20260505015546 | 45 | 31 | 1.0 | 10.0 | 0.00 | 0.04 | 0.04 | 86 | 1015.5 |
| 20260505015049 | 45 | 230 | 2.0 | 10.0 | 0.00 | 0.04 | 0.04 | 86 | 1015.6 |
| 20260505014557 | 45 | 0 | 3.0 | 10.0 | 0.00 | 0.04 | 0.04 | 86 | 1015.6 |
| 20260505014047 | 46 | 104 | 1.0 | 9.0 | 0.00 | 0.04 | 0.04 | 86 | 1015.9 |
| 20260505013547 | 46 | 0 | 2.0 | 9.0 | 0.00 | 0.04 | 0.04 | 85 | 1015.9 |
| 20260505013057 | 46 | 181 | 2.0 | 7.0 | 0.00 | 0.04 | 0.04 | 85 | 1015.9 |
| 20260505012548 | 46 | 127 | 2.0 | 18.0 | 0.00 | 0.04 | 0.04 | 84 | 1015.8 |
| 20260505012045 | 46 | 216 | 3.0 | 18.0 | 0.00 | 0.04 | 0.04 | 84 | 1015.7 |
| 20260505011557 | 46 | 337 | 3.0 | 9.0 | 0.00 | 0.04 | 0.04 | 83 | 1015.9 |
| 20260505011045 | 47 | 251 | 3.0 | 8.0 | 0.00 | 0.04 | 0.04 | 83 | 1015.9 |
| 20260505010546 | 47 | 140 | 3.0 | 7.0 | 0.00 | 0.04 | 0.04 | 82 | 1016.0 |
| 20260505010112 | 47 | 123 | 2.0 | 8.0 | 0.00 | 0.04 | 0.04 | 82 | 1015.9 |
| 20260505005545 | 47 | 0 | 1.0 | 8.0 | 0.00 | 0.04 | 0.04 | 82 | 1016.1 |
| 20260505005045 | 47 | 132 | 1.0 | 9.0 | 0.00 | 0.04 | 0.04 | 82 | 1016.1 |
| 20260505004559 | 47 | 105 | 2.0 | 13.0 | 0.00 | 0.04 | 0.04 | 82 | 1015.9 |
| 20260505004048 | 48 | 59 | 3.0 | 13.0 | 0.00 | 0.04 | 0.04 | 81 | 1015.9 |
| 20260505003547 | 48 | 228 | 2.0 | 6.0 | 0.00 | 0.04 | 0.04 | 81 | 1016.0 |
| 20260505003058 | 48 | 70 | 1.0 | 4.0 | 0.00 | 0.04 | 0.04 | 81 | 1015.9 |
| 20260505002547 | 48 | 144 | 1.0 | 5.0 | 0.00 | 0.04 | 0.04 | 80 | 1016.0 |
| 20260505002044 | 48 | 136 | 2.0 | 11.0 | 0.00 | 0.04 | 0.04 | 80 | 1015.9 |
| 20260505001600 | 48 | 106 | 2.0 | 11.0 | 0.00 | 0.04 | 0.04 | 80 | 1016.0 |
| 20260505001050 | 48 | 30 | 3.0 | 9.0 | 0.00 | 0.04 | 0.04 | 78 | 1015.9 |
| 20260505000551 | 49 | 140 | 0.0 | 6.0 | 0.00 | 0.04 | 0.04 | 79 | 1016.1 |
| 20260505000057 | 49 | 72 | 2.0 | 10.0 | 0.00 | 0.04 | 0.04 | 79 | 1015.9 |
| 20260504235548 | 49 | 343 | 2.0 | 10.0 | 0.00 | 0.04 | 0.04 | 78 | 1015.9 |
| 20260504235048 | 49 | 306 | 2.0 | 8.0 | 0.00 | 0.04 | 0.04 | 78 | 1016.0 |
| 20260504234550 | 49 | 155 | 2.0 | 9.0 | 0.00 | 0.04 | 0.04 | 76 | 1016.0 |
| 20260504234048 | 49 | 204 | 1.0 | 9.0 | 0.00 | 0.04 | 0.04 | 76 | 1015.9 |
| 20260504233548 | 50 | 0 | 1.0 | 8.0 | 0.00 | 0.04 | 0.04 | 75 | 1015.9 |
| 20260504233107 | 50 | 98 | 2.0 | 8.0 | 0.00 | 0.04 | 0.04 | 75 | 1016.0 |
| 20260504232545 | 50 | 157 | 2.0 | 7.0 | 0.00 | 0.04 | 0.04 | 75 | 1015.9 |
| 20260504232047 | 50 | 261 | 2.0 | 8.0 | 0.00 | 0.04 | 0.04 | 74 | 1015.9 |
| 20260504231552 | 50 | 89 | 3.0 | 10.0 | 0.00 | 0.04 | 0.04 | 74 | 1016.0 |
| 20260504231044 | 50 | 140 | 3.0 | 10.0 | 0.00 | 0.04 | 0.04 | 74 | 1016.1 |
| 20260504230545 | 50 | 195 | 1.0 | 15.0 | 0.00 | 0.04 | 0.04 | 75 | 1015.9 |
| 20260504230059 | 50 | 161 | 3.0 | 15.0 | 0.00 | 0.04 | 0.04 | 74 | 1016.0 |
| 20260504225549 | 50 | 150 | 1.0 | 5.0 | 0.00 | 0.04 | 0.04 | 74 | 1016.0 |
| 20260504225048 | 51 | 119 | 2.0 | 6.0 | 0.00 | 0.04 | 0.04 | 74 | 1016.1 |
| 20260504224552 | 50 | 67 | 1.0 | 7.0 | 0.00 | 0.04 | 0.04 | 74 | 1015.9 |
| 20260504224048 | 50 | 121 | 1.0 | 10.0 | 0.00 | 0.04 | 0.04 | 73 | 1015.9 |
| 20260504223549 | 51 | 262 | 2.0 | 10.0 | 0.00 | 0.04 | 0.04 | 73 | 1016.1 |
| 20260504223055 | 51 | 94 | 2.0 | 7.0 | 0.00 | 0.04 | 0.04 | 73 | 1015.9 |
| 20260504222548 | 51 | 46 | 2.0 | 9.0 | 0.00 | 0.04 | 0.04 | 73 | 1016.1 |
| 20260504222048 | 51 | 175 | 2.0 | 9.0 | 0.00 | 0.04 | 0.04 | 74 | 1016.4 |
| 20260504221550 | 51 | 216 | 2.0 | 13.0 | 0.00 | 0.04 | 0.04 | 73 | 1016.1 |
| 20260504221049 | 51 | 137 | 2.0 | 13.0 | 0.00 | 0.04 | 0.04 | 75 | 1016.2 |
| 20260504220548 | 51 | 126 | 3.0 | 9.0 | 0.00 | 0.04 | 0.04 | 72 | 1016.5 |
| 20260504220054 | 52 | 158 | 3.0 | 14.0 | 0.00 | 0.04 | 0.04 | 73 | 1016.4 |
| 20260504215547 | 52 | 82 | 4.0 | 14.0 | 0.00 | 0.04 | 0.04 | 72 | 1016.5 |
| 20260504215048 | 51 | 164 | 2.0 | 7.0 | 0.00 | 0.04 | 0.04 | 73 | 1016.5 |
| 20260504214556 | 51 | 294 | 2.0 | 12.0 | 0.00 | 0.04 | 0.04 | 75 | 1016.7 |
| 20260504214049 | 51 | 150 | 3.0 | 12.0 | 0.00 | 0.04 | 0.04 | 76 | 1016.6 |
| 20260504213547 | 51 | 0 | 2.0 | 5.0 | 0.00 | 0.04 | 0.04 | 75 | 1016.7 |
| 20260504213052 | 51 | 80 | 1.0 | 8.0 | 0.00 | 0.04 | 0.04 | 77 | 1016.7 |
| 20260504212544 | 51 | 46 | 1.0 | 9.0 | 0.00 | 0.04 | 0.04 | 78 | 1016.8 |
| 20260504212048 | 50 | 175 | 2.0 | 9.0 | 0.00 | 0.04 | 0.04 | 76 | 1016.8 |
| 20260504211551 | 51 | 78 | 3.0 | 9.0 | 0.00 | 0.04 | 0.04 | 76 | 1017.1 |
| 20260504211050 | 51 | 187 | 3.0 | 9.0 | 0.00 | 0.04 | 0.04 | 74 | 1017.1 |
| 20260504210549 | 51 | 80 | 2.0 | 9.0 | 0.00 | 0.04 | 0.04 | 74 | 1016.9 |
| 20260504210105 | 51 | 127 | 1.0 | 7.0 | 0.00 | 0.04 | 0.04 | 77 | 1017.1 |
| 20260504205547 | 51 | 301 | 1.0 | 9.0 | 0.00 | 0.04 | 0.04 | 78 | 1017.0 |
| 20260504205047 | 51 | 13 | 2.0 | 15.0 | 0.00 | 0.04 | 0.04 | 76 | 1017.0 |
| 20260504204559 | 51 | 263 | 3.0 | 15.0 | 0.00 | 0.04 | 0.04 | 76 | 1017.0 |
| 20260504204047 | 50 | 136 | 2.0 | 7.0 | 0.00 | 0.04 | 0.04 | 81 | 1017.0 |
| 20260504203545 | 49 | 144 | 2.0 | 7.0 | 0.00 | 0.04 | 0.04 | 80 | 1017.1 |
| 20260504203103 | 49 | 109 | 1.0 | 10.0 | 0.00 | 0.04 | 0.04 | 79 | 1017.1 |
| 20260504202543 | 49 | 49 | 1.0 | 10.0 | 0.00 | 0.04 | 0.04 | 81 | 1017.3 |
| 20260504202045 | 49 | 190 | 3.0 | 7.0 | 0.00 | 0.04 | 0.04 | 81 | 1017.1 |
| 20260504201555 | 49 | 346 | 1.0 | 9.0 | 0.00 | 0.04 | 0.04 | 84 | 1017.1 |
| 20260504201044 | 48 | 296 | 2.0 | 9.0 | 0.00 | 0.04 | 0.04 | 82 | 1017.1 |
| 20260504200546 | 48 | 171 | 3.0 | 9.0 | 0.00 | 0.04 | 0.04 | 85 | 1017.3 |
| 20260504200052 | 48 | 235 | 3.0 | 9.0 | 0.00 | 0.04 | 0.04 | 84 | 1017.2 |
| 20260504195544 | 47 | 76 | 3.0 | 8.0 | 0.00 | 0.04 | 0.04 | 85 | 1017.3 |
| 20260504195045 | 47 | 141 | 3.0 | 8.0 | 0.00 | 0.04 | 0.04 | 88 | 1017.5 |
| 20260504194555 | 46 | 180 | 1.0 | 4.0 | 0.00 | 0.04 | 0.04 | 90 | 1017.3 |
| 20260504194045 | 46 | 326 | 1.0 | 7.0 | 0.00 | 0.04 | 0.04 | 90 | 1017.5 |
| 20260504193545 | 46 | 0 | 2.0 | 7.0 | 0.00 | 0.04 | 0.04 | 91 | 1017.6 |
| 20260504193054 | 45 | 325 | 1.0 | 5.0 | 0.00 | 0.04 | 0.04 | 91 | 1017.4 |
| 20260504192550 | 45 | 143 | 1.0 | 6.0 | 0.00 | 0.04 | 0.04 | 92 | 1017.6 |
| 20260504192045 | 45 | 15 | 1.0 | 6.0 | 0.00 | 0.04 | 0.04 | 92 | 1017.5 |
| 20260504191554 | 45 | 125 | 0.0 | 3.0 | 0.00 | 0.04 | 0.04 | 92 | 1017.5 |
| 20260504191046 | 45 | 117 | 0.0 | 3.0 | 0.00 | 0.04 | 0.04 | 92 | 1017.6 |
| 20260504190544 | 45 | 0 | 1.0 | 10.0 | 0.00 | 0.04 | 0.04 | 92 | 1017.6 |
| 20260504190121 | 45 | 124 | 0.0 | 11.0 | 0.00 | 0.04 | 0.04 | 92 | 1017.9 |
| 20260504185545 | 45 | 152 | 2.0 | 11.0 | 0.00 | 0.04 | 0.04 | 92 | 1018.1 |
| 20260504185045 | 45 | 143 | 0.0 | 8.0 | 0.00 | 0.04 | 0.04 | 92 | 1017.9 |
| 20260504184553 | 45 | 207 | 0.0 | 8.0 | 0.00 | 0.04 | 0.04 | 92 | 1018.0 |
| 20260504184047 | 45 | 0 | 2.0 | 8.0 | 0.00 | 0.04 | 0.04 | 92 | 1017.8 |
| 20260504183545 | 45 | 128 | 2.0 | 4.0 | 0.00 | 0.04 | 0.04 | 92 | 1017.6 |
| 20260504183054 | 45 | 115 | 1.0 | 4.0 | 0.00 | 0.04 | 0.04 | 93 | 1017.8 |
| 20260504182544 | 44 | 126 | 1.0 | 5.0 | 0.00 | 0.04 | 0.04 | 92 | 1017.9 |
| 20260504182045 | 44 | 146 | 1.0 | 5.0 | 0.00 | 0.04 | 0.04 | 93 | 1017.7 |
| 20260504181555 | 44 | 159 | 1.0 | 5.0 | 0.00 | 0.04 | 0.04 | 94 | 1017.8 |
| 20260504181045 | 44 | 0 | 1.0 | 5.0 | 0.00 | 0.04 | 0.04 | 94 | 1017.7 |
| 20260504180549 | 44 | 0 | 0.0 | 7.0 | 0.00 | 0.04 | 0.04 | 94 | 1017.6 |
| 20260504180054 | 44 | 167 | 2.0 | 7.0 | 0.00 | 0.04 | 0.04 | 94 | 1017.7 |
| 20260504175545 | 44 | 77 | 1.0 | 9.0 | 0.00 | 0.04 | 0.04 | 95 | 1017.9 |
| 20260504175045 | 43 | 139 | 2.0 | 9.0 | 0.00 | 0.04 | 0.04 | 94 | 1017.7 |
| 20260504174558 | 43 | 0 | 2.0 | 9.0 | 0.00 | 0.04 | 0.04 | 94 | 1017.7 |
| 20260504174045 | 43 | 304 | 3.0 | 8.0 | 0.00 | 0.04 | 0.04 | 95 | 1017.6 |
| 20260504173544 | 43 | 0 | 2.0 | 7.0 | 0.00 | 0.04 | 0.04 | 95 | 1017.5 |
| 20260504173101 | 43 | 325 | 2.0 | 7.0 | 0.00 | 0.04 | 0.04 | 95 | 1017.6 |
| 20260504172545 | 43 | 116 | 1.0 | 5.0 | 0.00 | 0.04 | 0.04 | 95 | 1017.3 |
| 20260504172045 | 43 | 267 | 0.0 | 4.0 | 0.01 | 0.04 | 0.04 | 95 | 1017.4 |
| 20260504171553 | 43 | 147 | 1.0 | 6.0 | 0.01 | 0.04 | 0.04 | 95 | 1017.3 |
| 20260504171046 | 43 | 134 | 1.0 | 6.0 | 0.01 | 0.04 | 0.04 | 95 | 1017.1 |
| 20260504170544 | 43 | 233 | 1.0 | 6.0 | 0.01 | 0.04 | 0.04 | 95 | 1017.0 |
| 20260504151045 | 42 | 217 | 1.0 | 14.0 | 0.00 | 0.03 | 0.03 | 95 | 1016.5 |
| 20260504150547 | 42 | 186 | 1.0 | 7.0 | 0.00 | 0.03 | 0.03 | 95 | 1016.4 |
| 20260504141045 | 41 | 84 | 1.0 | 5.0 | 0.00 | 0.03 | 0.03 | 95 | 1016.0 |
| 20260504140545 | 41 | 178 | 1.0 | 5.0 | 0.00 | 0.03 | 0.03 | 95 | 1016.1 |